| time (UTC) | temp C | wind direction | speed KPH | gust KPH | rain 1hr cm | rain 24hr cm | rain mn cm | humidity % | barometer mb |
| 20260506164243 | 21 | 245 | 0.0 | 0.0 | 0.00 | 3.73 | 9.91 | 51 | 1008.6 |
| 20260506163743 | 21 | 242 | 1.6 | 11.3 | 0.00 | 3.73 | 9.91 | 53 | 1008.7 |
| 20260506163243 | 21 | 23 | 14.5 | 24.1 | 0.00 | 3.73 | 9.91 | 53 | 1008.8 |
| 20260506162743 | 21 | 234 | 0.0 | 0.0 | 0.00 | 3.73 | 9.91 | 55 | 1008.4 |
| 20260506162243 | 21 | 277 | 0.0 | 11.3 | 0.00 | 3.73 | 9.91 | 53 | 1008.3 |
| 20260506161743 | 20 | 303 | 4.8 | 11.3 | 0.00 | 3.73 | 9.91 | 53 | 1008.7 |
| 20260506161243 | 20 | 270 | 0.0 | 11.3 | 0.00 | 3.73 | 9.91 | 55 | 1008.5 |
| 20260506160743 | 20 | 277 | 0.0 | 11.3 | 0.00 | 3.73 | 9.91 | 58 | 1008.6 |
| 20260506160243 | 20 | 225 | 0.0 | 0.0 | 0.00 | 3.73 | 9.91 | 57 | 1008.8 |
| 20260506155743 | 19 | 274 | 0.0 | 11.3 | 0.00 | 3.73 | 9.91 | 59 | 1008.8 |
| 20260506155243 | 19 | 282 | 3.2 | 11.3 | 0.00 | 3.73 | 9.91 | 60 | 1008.6 |
| 20260506154743 | 19 | 47 | 0.0 | 0.0 | 0.00 | 3.73 | 9.91 | 60 | 1008.6 |
| 20260506154243 | 18 | 222 | 0.0 | 0.0 | 0.00 | 3.73 | 9.91 | 59 | 1008.6 |
| 20260506153743 | 18 | 44 | 0.0 | 0.0 | 0.00 | 3.73 | 9.91 | 57 | 1008.7 |
| 20260506153242 | 19 | 221 | 0.0 | 11.3 | 0.00 | 3.73 | 9.91 | 62 | 1008.5 |
| 20260506152742 | 19 | 227 | 0.0 | 0.0 | 0.00 | 3.73 | 9.91 | 62 | 1008.6 |
| 20260506152242 | 20 | 359 | 0.0 | 0.0 | 0.00 | 3.73 | 9.91 | 63 | 1008.3 |
| 20260506151742 | 20 | 297 | 1.6 | 11.3 | 0.00 | 3.73 | 9.91 | 62 | 1008.7 |
| 20260506151242 | 21 | 278 | 0.0 | 0.0 | 0.00 | 3.73 | 9.91 | 59 | 1008.5 |
| 20260506150742 | 22 | 288 | 3.2 | 11.3 | 0.00 | 3.73 | 9.91 | 56 | 1008.6 |
| 20260506150242 | 22 | 300 | 0.0 | 11.3 | 0.00 | 3.73 | 9.91 | 55 | 1008.6 |
| 20260506145742 | 22 | 254 | 0.0 | 11.3 | 0.00 | 3.73 | 9.91 | 53 | 1008.6 |
| 20260506145242 | 23 | 19 | 0.0 | 0.0 | 0.00 | 3.73 | 9.91 | 54 | 1008.7 |
| 20260506144742 | 23 | 153 | 0.0 | 11.3 | 0.00 | 3.73 | 9.91 | 48 | 1008.8 |
| 20260506144242 | 23 | 201 | 4.8 | 11.3 | 0.00 | 3.73 | 9.91 | 51 | 1008.7 |
| 20260506143742 | 23 | 17 | 1.6 | 11.3 | 0.00 | 3.73 | 9.91 | 48 | 1008.9 |
| 20260506143242 | 22 | 56 | 0.0 | 11.3 | 0.00 | 3.73 | 9.91 | 49 | 1008.9 |
| 20260506142742 | 22 | 263 | 9.7 | 24.1 | 0.00 | 3.73 | 9.91 | 50 | 1008.9 |
| 20260506142242 | 22 | 320 | 3.2 | 11.3 | 0.00 | 3.73 | 9.91 | 49 | 1008.8 |
| 20260506141742 | 22 | 245 | 0.0 | 0.0 | 0.00 | 3.73 | 9.91 | 49 | 1008.7 |
| 20260506141242 | 22 | 291 | 3.2 | 11.3 | 0.00 | 3.73 | 9.91 | 46 | 1008.8 |
| 20260506140741 | 22 | 264 | 11.3 | 24.1 | 0.00 | 3.73 | 9.91 | 48 | 1008.7 |
| 20260506140241 | 22 | 304 | 4.8 | 11.3 | 0.00 | 3.73 | 9.91 | 46 | 1009.1 |
| 20260506135741 | 22 | 276 | 0.0 | 0.0 | 0.00 | 3.73 | 9.91 | 51 | 1008.6 |
| 20260506135241 | 22 | 200 | 0.0 | 11.3 | 0.00 | 3.73 | 9.91 | 52 | 1008.6 |
| 20260506134741 | 22 | 267 | 0.0 | 0.0 | 0.00 | 3.73 | 9.91 | 53 | 1008.7 |
| 20260506134241 | 22 | 279 | 0.0 | 0.0 | 0.00 | 3.73 | 9.91 | 52 | 1008.9 |
| 20260506133741 | 22 | 252 | 0.0 | 11.3 | 0.00 | 3.73 | 9.91 | 53 | 1008.8 |
| 20260506133241 | 22 | 270 | 0.0 | 0.0 | 0.00 | 3.73 | 9.91 | 56 | 1008.8 |
| 20260506132741 | 22 | 277 | 4.8 | 24.1 | 0.00 | 3.73 | 9.91 | 54 | 1009.0 |
| 20260506132241 | 22 | 50 | 0.0 | 11.3 | 0.00 | 3.73 | 9.91 | 53 | 1008.9 |
| 20260506131741 | 21 | 202 | 0.0 | 0.0 | 0.00 | 3.73 | 9.91 | 52 | 1009.1 |
| 20260506131241 | 21 | 262 | 0.0 | 11.3 | 0.00 | 3.73 | 9.91 | 57 | 1008.8 |
| 20260506130741 | 21 | 251 | 0.0 | 0.0 | 0.00 | 3.73 | 9.91 | 59 | 1009.0 |
| 20260506130241 | 21 | 277 | 1.6 | 11.3 | 0.00 | 3.73 | 9.91 | 58 | 1008.8 |
| 20260506125741 | 20 | 206 | 12.9 | 24.1 | 0.00 | 3.73 | 9.91 | 54 | 1009.0 |
| 20260506125241 | 20 | 270 | 0.0 | 0.0 | 0.00 | 3.73 | 9.91 | 59 | 1008.9 |
| 20260506124741 | 20 | 209 | 0.0 | 0.0 | 0.00 | 3.73 | 9.91 | 58 | 1008.8 |
| 20260506124241 | 20 | 160 | 0.0 | 11.3 | 0.00 | 3.73 | 9.91 | 58 | 1008.9 |
| 20260506123741 | 20 | 49 | 0.0 | 11.3 | 0.00 | 3.73 | 9.91 | 62 | 1008.8 |
| 20260506123241 | 20 | 4 | 4.8 | 11.3 | 0.00 | 3.73 | 9.91 | 59 | 1009.0 |
| 20260506122741 | 21 | 271 | 0.0 | 0.0 | 0.00 | 3.73 | 9.91 | 59 | 1008.8 |
| 20260506122240 | 21 | 271 | 0.0 | 0.0 | 0.00 | 3.73 | 9.91 | 59 | 1008.8 |
| 20260506121740 | 21 | 243 | 3.2 | 24.1 | 0.00 | 3.73 | 9.91 | 60 | 1009.2 |
| 20260506121240 | 21 | 261 | 0.0 | 0.0 | 0.00 | 3.73 | 9.91 | 58 | 1008.9 |
| 20260506120740 | 21 | 266 | 0.0 | 11.3 | 0.00 | 3.73 | 9.91 | 60 | 1008.9 |
| 20260506120240 | 21 | 298 | 1.6 | 11.3 | 0.00 | 3.73 | 9.91 | 58 | 1008.8 |
| 20260506115740 | 21 | 241 | 0.0 | 0.0 | 0.00 | 3.73 | 9.91 | 57 | 1009.0 |
| 20260506115240 | 21 | 267 | 0.0 | 0.0 | 0.00 | 3.73 | 9.91 | 56 | 1008.8 |
| 20260506114740 | 21 | 34 | 4.8 | 11.3 | 0.00 | 3.73 | 9.91 | 55 | 1008.8 |
| 20260506114241 | 21 | 195 | 0.0 | 0.0 | 0.00 | 3.73 | 9.91 | 52 | 1009.0 |
| 20260506113740 | 21 | 294 | 0.0 | 0.0 | 0.00 | 3.73 | 9.91 | 52 | 1008.9 |
| 20260506113240 | 21 | 250 | 0.0 | 0.0 | 0.00 | 3.73 | 9.91 | 52 | 1008.8 |
| 20260506112740 | 20 | 16 | 1.6 | 11.3 | 0.00 | 3.73 | 9.91 | 54 | 1009.1 |
| 20260506112240 | 20 | 236 | 0.0 | 0.0 | 0.00 | 3.73 | 9.91 | 52 | 1009.3 |
| 20260506111740 | 20 | 231 | 0.0 | 11.3 | 0.00 | 3.73 | 9.91 | 52 | 1009.2 |
| 20260506111240 | 20 | 237 | 0.0 | 0.0 | 0.00 | 3.73 | 9.91 | 56 | 1009.2 |
| 20260506110739 | 19 | 276 | 3.2 | 11.3 | 0.00 | 3.73 | 9.91 | 55 | 1009.3 |
| 20260506110239 | 19 | 193 | 0.0 | 0.0 | 0.00 | 3.73 | 9.91 | 56 | 1009.5 |
| 20260506105739 | 18 | 16 | 0.0 | 0.0 | 0.00 | 3.73 | 9.91 | 56 | 1009.3 |
| 20260506105239 | 18 | 240 | 0.0 | 0.0 | 0.00 | 3.73 | 9.91 | 61 | 1009.2 |
| 20260506104739 | 18 | 249 | 11.3 | 24.1 | 0.00 | 3.73 | 9.91 | 57 | 1009.3 |
| 20260506104239 | 18 | 226 | 0.0 | 11.3 | 0.00 | 3.73 | 9.91 | 59 | 1009.1 |
| 20260506103739 | 18 | 243 | 0.0 | 11.3 | 0.00 | 3.73 | 9.91 | 61 | 1009.5 |
| 20260506103239 | 17 | 220 | 1.6 | 11.3 | 0.00 | 3.73 | 9.91 | 61 | 1009.5 |
| 20260506102739 | 17 | 254 | 0.0 | 0.0 | 0.00 | 3.73 | 9.91 | 62 | 1009.4 |
| 20260506102239 | 17 | 257 | 0.0 | 0.0 | 0.00 | 3.73 | 9.91 | 63 | 1009.6 |
| 20260506101739 | 17 | 241 | 0.0 | 0.0 | 0.00 | 3.73 | 9.91 | 65 | 1009.4 |
| 20260506101239 | 17 | 221 | 0.0 | 0.0 | 0.00 | 3.73 | 9.91 | 69 | 1009.5 |
| 20260506100739 | 16 | 266 | 0.0 | 0.0 | 0.00 | 3.73 | 9.91 | 70 | 1009.5 |
| 20260506100239 | 16 | 355 | 0.0 | 0.0 | 0.00 | 3.73 | 9.91 | 71 | 1009.4 |
| 20260506095739 | 16 | 245 | 0.0 | 0.0 | 0.00 | 3.73 | 9.91 | 69 | 1009.4 |
| 20260506095238 | 16 | 184 | 0.0 | 0.0 | 0.00 | 3.73 | 9.91 | 71 | 1009.3 |
| 20260506094738 | 16 | 193 | 0.0 | 0.0 | 0.00 | 3.73 | 9.91 | 70 | 1009.3 |
| 20260506094238 | 15 | 233 | 0.0 | 11.3 | 0.00 | 3.73 | 9.91 | 71 | 1009.7 |
| 20260506093738 | 15 | 245 | 0.0 | 0.0 | 0.00 | 3.73 | 9.91 | 74 | 1009.4 |
| 20260506093238 | 15 | 239 | 0.0 | 0.0 | 0.00 | 3.73 | 9.91 | 77 | 1009.3 |
| 20260506092738 | 15 | 250 | 0.0 | 11.3 | 0.00 | 3.73 | 9.91 | 75 | 1009.4 |
| 20260506092238 | 15 | 261 | 0.0 | 0.0 | 0.00 | 3.73 | 9.91 | 75 | 1009.4 |
| 20260506091738 | 15 | 273 | 3.2 | 11.3 | 0.00 | 3.73 | 9.91 | 73 | 1009.4 |
| 20260506091238 | 15 | 246 | 0.0 | 0.0 | 0.00 | 3.73 | 9.91 | 77 | 1009.4 |
| 20260506090738 | 15 | 262 | 0.0 | 0.0 | 0.00 | 3.73 | 9.91 | 75 | 1009.3 |
| 20260506090238 | 14 | 6 | 0.0 | 0.0 | 0.00 | 3.73 | 9.91 | 78 | 1009.3 |
| 20260506085738 | 14 | 225 | 0.0 | 0.0 | 0.00 | 3.73 | 9.91 | 77 | 1009.2 |
| 20260506085238 | 13 | 273 | 0.0 | 0.0 | 0.00 | 3.73 | 9.91 | 76 | 1009.2 |
| 20260506084738 | 13 | 244 | 0.0 | 0.0 | 0.00 | 3.73 | 9.91 | 77 | 1009.2 |
| 20260506084238 | 13 | 197 | 0.0 | 0.0 | 0.00 | 3.73 | 9.91 | 79 | 1009.2 |
| 20260506083738 | 13 | 289 | 0.0 | 0.0 | 0.00 | 3.73 | 9.91 | 81 | 1009.2 |
| 20260506083238 | 13 | 219 | 0.0 | 0.0 | 0.00 | 3.73 | 9.91 | 83 | 1009.3 |
| 20260506082737 | 13 | 222 | 0.0 | 0.0 | 0.00 | 3.73 | 9.91 | 84 | 1009.1 |
| 20260506082237 | 13 | 264 | 0.0 | 0.0 | 0.00 | 3.73 | 9.91 | 84 | 1009.5 |
| 20260506081737 | 13 | 276 | 0.0 | 0.0 | 0.00 | 3.73 | 9.91 | 85 | 1009.2 |
| 20260506081237 | 12 | 251 | 6.4 | 11.3 | 0.00 | 3.73 | 9.91 | 86 | 1009.2 |
| 20260506080737 | 12 | 250 | 0.0 | 0.0 | 0.00 | 3.73 | 9.91 | 88 | 1009.2 |
| 20260506080237 | 12 | 186 | 0.0 | 0.0 | 0.00 | 3.73 | 9.91 | 86 | 1009.1 |
| 20260506073237 | 11 | 235 | 0.0 | 0.0 | 0.00 | 3.73 | 9.91 | 93 | 1009.0 |
| 20260506072737 | 11 | 255 | 0.0 | 0.0 | 0.00 | 3.73 | 9.91 | 93 | 1009.0 |
| 20260506072237 | 11 | 215 | 0.0 | 0.0 | 0.00 | 3.73 | 9.91 | 93 | 1009.0 |
| 20260506071737 | 11 | 218 | 0.0 | 0.0 | 0.00 | 3.73 | 9.91 | 93 | 1008.9 |
| 20260506071237 | 11 | 288 | 0.0 | 0.0 | 0.00 | 3.73 | 9.91 | 94 | 1009.0 |
| 20260506070736 | 11 | 243 | 0.0 | 0.0 | 0.00 | 3.73 | 9.91 | 94 | 1009.0 |
| 20260506070236 | 11 | 232 | 0.0 | 0.0 | 0.00 | 3.73 | 9.91 | 94 | 1008.8 |
| 20260506062236 | 11 | 229 | 0.0 | 0.0 | 0.00 | 3.73 | 9.91 | 95 | 1008.4 |
| 20260506061736 | 11 | 239 | 0.0 | 0.0 | 0.00 | 3.73 | 9.91 | 95 | 1008.5 |
| 20260506061236 | 11 | 249 | 0.0 | 0.0 | 0.00 | 3.73 | 9.91 | 95 | 1008.7 |
| 20260506060736 | 11 | 242 | 0.0 | 0.0 | 0.00 | 3.73 | 9.91 | 95 | 1008.6 |
| 20260506060236 | 11 | 282 | 0.0 | 0.0 | 0.00 | 3.73 | 9.91 | 95 | 1008.4 |
| 20260506051235 | 11 | 264 | 0.0 | 0.0 | 0.00 | 3.73 | 9.91 | 95 | 1007.9 |
| 20260506050735 | 11 | 254 | 0.0 | 0.0 | 0.00 | 3.73 | 9.91 | 95 | 1008.1 |
| 20260506050235 | 11 | 267 | 0.0 | 0.0 | 0.00 | 3.73 | 9.91 | 95 | 1007.9 |
| 20260506044735 | 11 | 265 | 0.0 | 0.0 | 0.00 | 3.73 | 9.91 | 95 | 1007.8 |
| 20260506044235 | 11 | 260 | 0.0 | 0.0 | 0.00 | 3.73 | 9.91 | 95 | 1007.6 |
| 20260506043735 | 11 | 259 | 0.0 | 0.0 | 0.00 | 3.73 | 9.91 | 95 | 1007.5 |
| 20260506043235 | 11 | 262 | 0.0 | 0.0 | 0.00 | 3.73 | 9.91 | 95 | 1007.6 |
| 20260506042735 | 11 | 260 | 0.0 | 0.0 | 0.00 | 3.73 | 9.91 | 95 | 1007.5 |
| 20260506042235 | 11 | 265 | 0.0 | 0.0 | 0.00 | 3.73 | 9.91 | 95 | 1007.5 |
| 20260506041735 | 11 | 246 | 0.0 | 0.0 | 0.00 | 3.73 | 9.91 | 95 | 1007.5 |
| 20260506041234 | 11 | 248 | 0.0 | 0.0 | 0.00 | 3.73 | 9.91 | 95 | 1007.7 |
| 20260506040734 | 11 | 255 | 0.0 | 0.0 | 0.00 | 3.73 | 9.91 | 95 | 1007.6 |
| 20260506040234 | 11 | 253 | 0.0 | 0.0 | 0.00 | 3.73 | 9.91 | 95 | 1007.6 |
| 20260506035734 | 11 | 280 | 0.0 | 0.0 | 0.00 | 3.73 | 9.91 | 95 | 1007.7 |
| 20260506035234 | 11 | 258 | 0.0 | 0.0 | 0.00 | 3.73 | 9.91 | 95 | 1007.6 |
| 20260506034734 | 11 | 258 | 0.0 | 0.0 | 0.00 | 3.73 | 9.91 | 95 | 1007.7 |
| 20260506034234 | 11 | 257 | 0.0 | 0.0 | 0.00 | 3.73 | 9.91 | 95 | 1007.5 |
| 20260506033734 | 11 | 249 | 0.0 | 0.0 | 0.00 | 3.73 | 9.91 | 95 | 1007.7 |
| 20260506033234 | 11 | 269 | 0.0 | 0.0 | 0.00 | 3.73 | 9.91 | 95 | 1007.2 |
| 20260506032734 | 11 | 262 | 0.0 | 0.0 | 0.00 | 3.73 | 9.91 | 95 | 1007.4 |
| 20260506032234 | 11 | 259 | 0.0 | 0.0 | 0.00 | 3.73 | 9.91 | 95 | 1007.4 |
| 20260506031734 | 11 | 266 | 0.0 | 0.0 | 0.00 | 3.73 | 9.91 | 95 | 1007.3 |
| 20260506031234 | 11 | 264 | 0.0 | 0.0 | 0.00 | 3.73 | 9.91 | 95 | 1007.5 |
| 20260506030734 | 11 | 257 | 0.0 | 0.0 | 0.00 | 3.73 | 9.91 | 95 | 1007.5 |
| 20260506030234 | 11 | 263 | 0.0 | 0.0 | 0.00 | 3.73 | 9.91 | 95 | 1007.5 |
| 20260506025734 | 11 | 251 | 0.0 | 0.0 | 0.00 | 3.73 | 9.91 | 95 | 1007.5 |
| 20260506025234 | 11 | 267 | 0.0 | 0.0 | 0.00 | 3.73 | 9.91 | 94 | 1007.3 |
| 20260506024733 | 11 | 261 | 0.0 | 0.0 | 0.00 | 3.73 | 9.91 | 94 | 1007.4 |
| 20260506024233 | 11 | 269 | 0.0 | 0.0 | 0.00 | 3.73 | 9.91 | 94 | 1007.1 |
| 20260506023733 | 11 | 260 | 0.0 | 0.0 | 0.00 | 3.73 | 9.91 | 94 | 1007.0 |
| 20260506023233 | 11 | 258 | 0.0 | 0.0 | 0.00 | 3.73 | 9.91 | 94 | 1007.1 |
| 20260506022733 | 11 | 257 | 0.0 | 0.0 | 0.00 | 3.73 | 9.91 | 94 | 1007.1 |
| 20260506022233 | 11 | 258 | 0.0 | 0.0 | 0.00 | 3.73 | 9.91 | 94 | 1007.0 |
| 20260506021733 | 11 | 254 | 0.0 | 0.0 | 0.00 | 3.73 | 9.91 | 94 | 1007.0 |
| 20260506021233 | 11 | 248 | 0.0 | 0.0 | 0.00 | 3.73 | 9.91 | 94 | 1006.8 |
| 20260506020733 | 11 | 261 | 0.0 | 0.0 | 0.00 | 3.73 | 9.91 | 94 | 1006.6 |
| 20260506020233 | 11 | 262 | 0.0 | 0.0 | 0.00 | 3.73 | 9.91 | 94 | 1006.5 |
| 20260506015733 | 11 | 255 | 0.0 | 0.0 | 0.00 | 3.73 | 9.91 | 94 | 1006.5 |
| 20260506015233 | 11 | 246 | 0.0 | 0.0 | 0.00 | 3.73 | 9.91 | 94 | 1006.3 |
| 20260506014733 | 11 | 260 | 0.0 | 0.0 | 0.00 | 3.73 | 9.91 | 94 | 1006.1 |
| 20260506014233 | 11 | 260 | 0.0 | 0.0 | 0.00 | 3.73 | 9.91 | 94 | 1006.3 |
| 20260506013733 | 11 | 258 | 0.0 | 0.0 | 0.00 | 3.73 | 9.91 | 94 | 1006.4 |
| 20260506013233 | 11 | 260 | 0.0 | 0.0 | 0.00 | 3.73 | 9.91 | 94 | 1006.2 |
| 20260506012733 | 12 | 269 | 0.0 | 0.0 | 0.00 | 3.73 | 9.91 | 94 | 1006.2 |
| 20260506012233 | 12 | 259 | 0.0 | 0.0 | 0.00 | 3.73 | 9.91 | 94 | 1006.0 |
| 20260506011733 | 12 | 253 | 0.0 | 0.0 | 0.00 | 3.73 | 9.91 | 94 | 1005.9 |
| 20260506011232 | 12 | 265 | 0.0 | 0.0 | 4.57 | 3.73 | 9.91 | 93 | 1005.9 |
| 20260506010732 | 12 | 296 | 0.0 | 0.0 | 4.57 | 3.73 | 9.91 | 93 | 1006.6 |
| 20260506010232 | 12 | 280 | 0.0 | 0.0 | 0.00 | 3.66 | 9.83 | 93 | 1007.1 |
| 20260506005732 | 12 | 274 | 0.0 | 0.0 | 4.57 | 3.66 | 9.83 | 93 | 1007.1 |
| 20260506005232 | 12 | 274 | 0.0 | 0.0 | 4.57 | 3.66 | 9.83 | 93 | 1007.1 |
| 20260506004732 | 12 | 266 | 0.0 | 0.0 | 13.72 | 3.66 | 9.83 | 93 | 1007.3 |
| 20260506004232 | 12 | 262 | 0.0 | 0.0 | 13.72 | 3.51 | 9.68 | 93 | 1007.2 |
| 20260506003732 | 12 | 282 | 0.0 | 0.0 | 18.29 | 3.43 | 9.58 | 93 | 1007.6 |
| 20260506003232 | 12 | 249 | 0.0 | 0.0 | 22.86 | 3.28 | 9.45 | 93 | 1007.7 |
| 20260506002732 | 12 | 273 | 0.0 | 0.0 | 22.86 | 3.12 | 9.30 | 93 | 1008.0 |
| 20260506002232 | 12 | 269 | 0.0 | 0.0 | 2.74 | 2.90 | 9.07 | 93 | 1007.9 |
| 20260506001732 | 12 | 230 | 0.0 | 0.0 | 22.86 | 2.67 | 8.81 | 93 | 1008.3 |
| 20260506001232 | 13 | 279 | 0.0 | 0.0 | 22.86 | 24.38 | 8.61 | 92 | 1008.3 |
| 20260506000732 | 13 | 176 | 0.0 | 0.0 | 13.72 | 22.07 | 8.38 | 92 | 1008.1 |
| 20260506000232 | 13 | 277 | 0.0 | 0.0 | 9.14 | 20.57 | 8.23 | 93 | 1008.2 |
| 20260505235732 | 13 | 249 | 0.0 | 0.0 | 9.14 | 19.81 | 8.15 | 93 | 1008.3 |
| 20260505235232 | 13 | 241 | 0.0 | 0.0 | 4.57 | 19.05 | 8.08 | 93 | 1008.1 |
| 20260505234732 | 13 | 257 | 0.0 | 0.0 | 4.57 | 18.29 | 8.00 | 92 | 1007.8 |
| 20260505234232 | 13 | 281 | 0.0 | 0.0 | 4.57 | 18.29 | 8.00 | 92 | 1008.0 |
| 20260505233732 | 13 | 270 | 0.0 | 0.0 | 4.57 | 17.53 | 7.92 | 92 | 1007.8 |
| 20260505233232 | 13 | 258 | 0.0 | 0.0 | 13.72 | 17.53 | 7.92 | 92 | 1007.4 |
| 20260505232732 | 13 | 265 | 0.0 | 0.0 | 18.29 | 16.76 | 7.85 | 92 | 1007.5 |
| 20260505232232 | 13 | 260 | 0.0 | 0.0 | 18.29 | 15.24 | 7.70 | 91 | 1007.7 |
| 20260505231731 | 13 | 260 | 0.0 | 0.0 | 3.20 | 13.72 | 7.54 | 91 | 1007.7 |
| 20260505231231 | 13 | 258 | 0.0 | 0.0 | 4.11 | 11.43 | 7.32 | 91 | 1007.9 |
| 20260505230731 | 13 | 258 | 0.0 | 0.0 | 3.20 | 7.62 | 6.93 | 91 | 1008.0 |
| 20260505230231 | 13 | 259 | 0.0 | 0.0 | 13.72 | 3.81 | 6.55 | 91 | 1008.3 |
| 20260505225731 | 13 | 259 | 0.0 | 0.0 | 9.14 | 2.29 | 6.40 | 91 | 1008.1 |
| 20260505225231 | 13 | 258 | 0.0 | 0.0 | 9.14 | 1.52 | 6.32 | 91 | 1008.5 |
| 20260505224731 | 13 | 260 | 0.0 | 0.0 | 4.57 | 0.76 | 6.25 | 90 | 1008.3 |
| 20260505224231 | 13 | 261 | 0.0 | 0.0 | 0.00 | 0.00 | 6.17 | 90 | 1008.5 |
| 20260505223731 | 13 | 261 | 0.0 | 0.0 | 0.00 | 0.00 | 6.17 | 90 | 1008.3 |
| 20260505223231 | 13 | 261 | 0.0 | 0.0 | 0.00 | 0.00 | 6.17 | 90 | 1008.3 |
| 20260505222731 | 13 | 260 | 0.0 | 0.0 | 0.00 | 0.00 | 6.17 | 90 | 1008.1 |
| 20260505222231 | 14 | 254 | 0.0 | 0.0 | 0.00 | 0.00 | 6.17 | 89 | 1008.3 |
| 20260505221731 | 14 | 262 | 0.0 | 0.0 | 0.00 | 0.00 | 6.17 | 89 | 1008.3 |
| 20260505221231 | 14 | 253 | 0.0 | 0.0 | 0.00 | 0.00 | 6.17 | 89 | 1008.3 |
| 20260505220731 | 14 | 265 | 0.0 | 0.0 | 0.00 | 0.00 | 6.17 | 89 | 1008.6 |
| 20260505220231 | 14 | 265 | 0.0 | 0.0 | 0.00 | 0.00 | 6.17 | 88 | 1008.7 |
| 20260505215731 | 14 | 253 | 0.0 | 0.0 | 0.00 | 19.81 | 6.17 | 88 | 1008.6 |
| 20260505215231 | 14 | 253 | 0.0 | 0.0 | 0.00 | 19.81 | 6.17 | 88 | 1008.6 |
| 20260505214731 | 14 | 252 | 0.0 | 0.0 | 0.00 | 19.81 | 6.17 | 87 | 1008.9 |
| 20260505214231 | 14 | 250 | 0.0 | 0.0 | 0.00 | 19.81 | 6.17 | 87 | 1008.9 |
| 20260505213731 | 14 | 249 | 0.0 | 0.0 | 0.00 | 19.81 | 6.17 | 87 | 1009.1 |
| 20260505213231 | 14 | 262 | 0.0 | 0.0 | 0.00 | 19.81 | 6.17 | 86 | 1009.4 |
| 20260505212731 | 14 | 236 | 0.0 | 0.0 | 0.00 | 19.81 | 6.17 | 85 | 1009.1 |
| 20260505212231 | 14 | 248 | 0.0 | 0.0 | 0.00 | 19.81 | 6.17 | 85 | 1009.1 |
| 20260505211730 | 14 | 254 | 0.0 | 0.0 | 0.00 | 19.81 | 6.17 | 84 | 1009.3 |
| 20260505211230 | 13 | 250 | 0.0 | 0.0 | 0.00 | 19.81 | 6.17 | 82 | 1009.3 |
| 20260505210730 | 13 | 259 | 0.0 | 0.0 | 0.00 | 19.81 | 6.17 | 81 | 1009.1 |
| 20260505210230 | 13 | 255 | 0.0 | 0.0 | 0.00 | 19.81 | 6.17 | 81 | 1009.2 |
| 20260505205730 | 13 | 241 | 0.0 | 0.0 | 0.00 | 19.81 | 6.17 | 81 | 1009.2 |
| 20260505205230 | 14 | 272 | 0.0 | 0.0 | 0.00 | 19.81 | 6.17 | 81 | 1009.1 |
| 20260505204730 | 14 | 266 | 0.0 | 0.0 | 0.00 | 19.81 | 6.17 | 83 | 1009.0 |
| 20260505204230 | 14 | 257 | 0.0 | 0.0 | 0.00 | 19.81 | 6.17 | 84 | 1008.7 |
| 20260505203730 | 14 | 257 | 0.0 | 0.0 | 0.00 | 19.81 | 6.17 | 84 | 1008.9 |
| 20260505203230 | 14 | 257 | 0.0 | 0.0 | 0.00 | 19.81 | 6.17 | 84 | 1009.0 |
| 20260505202730 | 14 | 257 | 0.0 | 0.0 | 0.00 | 19.81 | 6.17 | 84 | 1009.1 |
| 20260505202230 | 14 | 261 | 0.0 | 0.0 | 0.00 | 19.81 | 6.17 | 85 | 1008.9 |
| 20260505201730 | 14 | 251 | 0.0 | 0.0 | 0.00 | 19.81 | 6.17 | 85 | 1008.7 |
| 20260505201230 | 14 | 272 | 0.0 | 0.0 | 0.00 | 19.81 | 6.17 | 84 | 1008.8 |
| 20260505200730 | 14 | 251 | 0.0 | 0.0 | 0.00 | 19.81 | 6.17 | 84 | 1008.8 |
| 20260505200230 | 14 | 261 | 0.0 | 0.0 | 0.00 | 19.81 | 6.17 | 84 | 1008.7 |
| 20260505195730 | 15 | 269 | 0.0 | 0.0 | 0.00 | 19.81 | 6.17 | 84 | 1008.6 |
| 20260505195230 | 15 | 267 | 0.0 | 0.0 | 0.00 | 19.81 | 6.17 | 83 | 1008.5 |
| 20260505194730 | 15 | 272 | 0.0 | 0.0 | 0.00 | 19.81 | 6.17 | 83 | 1008.5 |
| 20260505194230 | 15 | 266 | 0.0 | 0.0 | 0.00 | 19.81 | 6.17 | 82 | 1008.5 |
| 20260505193730 | 15 | 268 | 0.0 | 0.0 | 0.00 | 19.81 | 6.17 | 82 | 1008.6 |
| 20260505193229 | 15 | 271 | 0.0 | 0.0 | 0.00 | 19.81 | 6.17 | 82 | 1008.5 |
| 20260505192729 | 15 | 279 | 0.0 | 0.0 | 0.00 | 19.81 | 6.17 | 83 | 1008.4 |
| 20260505192229 | 15 | 265 | 0.0 | 0.0 | 0.00 | 19.81 | 6.17 | 83 | 1008.5 |
| 20260505191729 | 15 | 266 | 0.0 | 0.0 | 0.00 | 19.81 | 6.17 | 83 | 1008.5 |
| 20260505191229 | 15 | 265 | 0.0 | 0.0 | 0.00 | 19.81 | 6.17 | 82 | 1008.5 |
| 20260505190729 | 15 | 270 | 0.0 | 0.0 | 0.00 | 19.81 | 6.17 | 82 | 1008.4 |
| 20260505190229 | 15 | 267 | 0.0 | 0.0 | 0.00 | 19.81 | 6.17 | 81 | 1008.7 |
| 20260505185729 | 15 | 267 | 0.0 | 0.0 | 0.00 | 19.81 | 6.17 | 81 | 1008.7 |
| 20260505185229 | 15 | 263 | 0.0 | 0.0 | 0.00 | 19.81 | 6.17 | 81 | 1008.6 |
| 20260505184729 | 15 | 250 | 0.0 | 0.0 | 0.00 | 19.81 | 6.17 | 80 | 1008.8 |
| 20260505184229 | 15 | 258 | 0.0 | 0.0 | 0.00 | 19.81 | 6.17 | 80 | 1008.9 |
| 20260505183729 | 16 | 279 | 0.0 | 11.3 | 0.00 | 19.81 | 6.17 | 79 | 1008.8 |
| 20260505183229 | 16 | 248 | 0.0 | 0.0 | 0.00 | 19.81 | 6.17 | 78 | 1009.0 |
| 20260505182729 | 16 | 288 | 4.8 | 11.3 | 0.00 | 19.81 | 6.17 | 78 | 1009.0 |
| 20260505182229 | 16 | 236 | 0.0 | 11.3 | 0.00 | 19.81 | 6.17 | 77 | 1008.9 |
| 20260505181729 | 16 | 248 | 0.0 | 0.0 | 0.00 | 19.81 | 6.17 | 76 | 1009.0 |
| 20260505181229 | 16 | 253 | 0.0 | 0.0 | 0.00 | 19.81 | 6.17 | 76 | 1008.9 |
| 20260505180729 | 16 | 222 | 0.0 | 0.0 | 0.00 | 19.81 | 6.17 | 76 | 1008.9 |
| 20260505180229 | 17 | 237 | 0.0 | 0.0 | 0.00 | 19.81 | 6.17 | 75 | 1008.9 |
| 20260505175728 | 17 | 249 | 0.0 | 0.0 | 0.00 | 19.81 | 6.17 | 75 | 1008.9 |
| 20260505175228 | 17 | 246 | 0.0 | 11.3 | 0.00 | 19.81 | 6.17 | 75 | 1008.8 |
| 20260505174728 | 17 | 244 | 0.0 | 0.0 | 0.00 | 19.81 | 6.17 | 74 | 1008.8 |
| 20260505174228 | 17 | 242 | 0.0 | 0.0 | 0.00 | 19.81 | 6.17 | 73 | 1008.8 |
| 20260505173728 | 18 | 216 | 0.0 | 0.0 | 0.00 | 19.81 | 6.17 | 72 | 1008.8 |
| 20260505173228 | 18 | 263 | 0.0 | 0.0 | 0.00 | 19.81 | 6.17 | 71 | 1008.8 |
| 20260505172728 | 19 | 282 | 0.0 | 0.0 | 0.00 | 19.81 | 6.17 | 69 | 1008.9 |
| 20260505172228 | 20 | 230 | 1.6 | 11.3 | 0.00 | 19.81 | 6.17 | 68 | 1009.0 |
| 20260505171728 | 20 | 257 | 0.0 | 0.0 | 0.00 | 19.81 | 6.17 | 67 | 1008.6 |
| 20260505171228 | 21 | 261 | 0.0 | 11.3 | 0.00 | 19.81 | 6.17 | 63 | 1008.8 |
| 20260505170728 | 22 | 296 | 0.0 | 0.0 | 0.00 | 19.81 | 6.17 | 61 | 1008.9 |
| 20260505170228 | 22 | 271 | 0.0 | 0.0 | 0.00 | 19.81 | 6.17 | 59 | 1008.9 |
| 20260505165728 | 22 | 309 | 0.0 | 0.0 | 0.00 | 19.81 | 6.17 | 59 | 1009.0 |
| 20260505165228 | 22 | 248 | 0.0 | 0.0 | 0.00 | 19.81 | 6.17 | 53 | 1009.0 |
| 20260505164728 | 22 | 321 | 0.0 | 0.0 | 0.00 | 19.81 | 6.17 | 49 | 1009.1 |